Location: Newark
(37.8333°N, 119.5000°W)
Time: 07:34:20
(UTC+00:00)

Vanguard 2 - Pass Details

Date: 27 August 2019
Orbit: 554 x 2937 km, 32.9° (Epoch: 16 October)

Event Time Altitude Azimuth Distance (km) Brightness Sun altitude
Rises 03:09:51 0° 264° (W) 5,267 13.2 -7.2°
Reaches altitude 10° 03:15:42 10° 241° (WSW) 4,767 12.2 -8.3°
Maximum altitude 03:21:40 14° 216° (SW) 4,845 11.8 -9.4°
Drops below altitude 10° 03:28:26 10° 191° (S) 5,515 11.8 -10.7°
Sets 03:36:38 0° 170° (S) 6,751 12.0 -12.2°
